| time (UTC) | temp C | wind direction | speed KPH | gust KPH | rain 1hr cm | rain 24hr cm | rain mn cm | humidity % | barometer mb |
| 20260504213004 | 22 | 193 | 4.8 | 25.7 | 0.00 | 0.00 | 0.00 | 38 | 1008.2 |
| 20260504212504 | 22 | 201 | 9.7 | 20.9 | 0.00 | 0.00 | 0.00 | 37 | 1009.0 |
| 20260504212006 | 22 | 187 | 9.7 | 22.5 | 0.00 | 0.00 | 0.00 | 40 | 1008.8 |
| 20260504211004 | 22 | 205 | 11.3 | 19.3 | 0.00 | 0.00 | 0.00 | 39 | 1008.9 |
| 20260504210505 | 22 | 204 | 9.7 | 24.1 | 0.00 | 0.00 | 0.00 | 37 | 1008.9 |
| 20260504210024 | 22 | 212 | 8.0 | 24.1 | 0.00 | 0.00 | 0.00 | 37 | 1009.0 |
| 20260504210006 | 22 | 205 | 14.5 | 24.1 | 0.00 | 0.00 | 0.00 | 38 | 1008.3 |
| 20260504204530 | 22 | 237 | 4.8 | 16.1 | 0.00 | 0.00 | 0.00 | 39 | 1008.3 |
| 20260504203051 | 22 | 200 | 8.0 | 20.9 | 0.00 | 0.00 | 0.00 | 38 | 1008.2 |
| 20260504201518 | 22 | 226 | 8.0 | 27.4 | 0.00 | 0.00 | 0.00 | 38 | 1008.3 |
| 20260504200506 | 22 | 149 | 8.0 | 25.7 | 0.00 | 0.00 | 0.00 | 37 | 1009.0 |
| 20260504200121 | 22 | 121 | 6.4 | 16.1 | 0.00 | 0.00 | 0.00 | 38 | 1008.3 |
| 20260504194558 | 22 | 155 | 6.4 | 20.9 | 0.00 | 0.00 | 0.00 | 39 | 1008.4 |
| 20260504194505 | 22 | 243 | 9.7 | 20.9 | 0.00 | 0.00 | 0.00 | 38 | 1009.2 |
| 20260504193503 | 22 | 193 | 11.3 | 24.1 | 0.00 | 0.00 | 0.00 | 38 | 1009.2 |
| 20260504193007 | 22 | 229 | 9.7 | 24.1 | 0.00 | 0.00 | 0.00 | 38 | 1008.5 |
| 20260504191540 | 22 | 244 | 6.4 | 14.5 | 0.00 | 0.00 | 0.00 | 39 | 1008.6 |
| 20260504191010 | 22 | 211 | 6.4 | 16.1 | 0.00 | 0.00 | 0.00 | 40 | 1009.6 |
| 20260504190105 | 22 | 272 | 8.0 | 22.5 | 0.00 | 0.00 | 0.00 | 39 | 1009.0 |
| 20260504184607 | 21 | 223 | 12.9 | 20.9 | 0.00 | 0.00 | 0.00 | 37 | 1009.2 |
| 20260504183050 | 21 | 188 | 14.5 | 30.6 | 0.00 | 0.00 | 0.00 | 38 | 1009.4 |
| 20260504181546 | 21 | 194 | 11.3 | 22.5 | 0.00 | 0.00 | 0.00 | 39 | 1009.6 |
| 20260504180107 | 21 | 151 | 6.4 | 17.7 | 0.00 | 0.00 | 0.00 | 40 | 1009.8 |
| 20260504175506 | 21 | 202 | 9.7 | 27.4 | 0.00 | 0.00 | 0.00 | 41 | 1010.5 |
| 20260504175004 | 21 | 188 | 11.3 | 27.4 | 0.00 | 0.00 | 0.00 | 41 | 1010.7 |
| 20260504173018 | 20 | 146 | 16.1 | 32.2 | 0.00 | 0.00 | 0.00 | 41 | 1010.1 |
| 20260504173005 | 21 | 166 | 11.3 | 27.4 | 0.00 | 0.00 | 0.00 | 41 | 1010.9 |
| 20260504171511 | 20 | 257 | 8.0 | 20.9 | 0.00 | 0.00 | 0.00 | 43 | 1010.3 |
| 20260504171506 | 20 | 237 | 11.3 | 37.0 | 0.00 | 0.00 | 0.00 | 43 | 1011.0 |
| 20260504171004 | 20 | 230 | 11.3 | 37.0 | 0.00 | 0.00 | 0.00 | 43 | 1011.2 |
| 20260504170142 | 20 | 213 | 9.7 | 29.0 | 0.00 | 0.00 | 0.00 | 42 | 1010.6 |
| 20260504160108 | 19 | 172 | 8.0 | 17.7 | 0.00 | 0.00 | 0.00 | 41 | 1011.5 |
| 20260504150507 | 18 | 189 | 12.9 | 24.1 | 0.00 | 0.00 | 0.00 | 49 | 1012.6 |
| 20260504150119 | 18 | 180 | 11.3 | 19.3 | 0.00 | 0.00 | 0.00 | 46 | 1011.9 |
| 20260504140527 | 16 | 234 | 6.4 | 19.3 | 0.00 | 0.00 | 0.00 | 58 | 1012.9 |
| 20260504130506 | 15 | 204 | 9.7 | 17.7 | 0.00 | 0.00 | 0.00 | 62 | 1013.3 |
| 20260504120157 | 12 | 181 | 9.7 | 19.3 | 0.00 | 0.00 | 0.00 | 72 | 1013.0 |
| 20260504100503 | 8 | 173 | 6.4 | 14.5 | 0.00 | 0.00 | 0.00 | 75 | 1013.6 |
| 20260504090125 | 7 | 140 | 3.2 | 6.4 | 0.00 | 0.00 | 0.00 | 64 | 1013.0 |
| 20260504081636 | 8 | 205 | 0.0 | 3.2 | 0.00 | 0.00 | 0.00 | 61 | 1013.0 |
| 20260504044519 | 10 | 208 | 3.2 | 9.7 | 0.00 | 0.00 | 0.00 | 53 | 1012.7 |
| 20260504043114 | 10 | 192 | 3.2 | 9.7 | 0.00 | 0.00 | 0.00 | 53 | 1012.4 |
| 20260504042504 | 11 | 194 | 4.8 | 11.3 | 0.00 | 0.00 | 0.00 | 53 | 1013.0 |
| 20260504042007 | 11 | 186 | 4.8 | 12.9 | 0.00 | 0.00 | 0.00 | 53 | 1012.9 |
| 20260504041549 | 10 | 173 | 3.2 | 12.9 | 0.00 | 0.00 | 0.00 | 53 | 1012.3 |
| 20260504040504 | 11 | 183 | 4.8 | 9.7 | 0.00 | 0.00 | 0.00 | 53 | 1012.8 |
| 20260504035044 | 11 | 173 | 3.2 | 9.7 | 0.00 | 0.00 | 0.00 | 52 | 1012.7 |
| 20260504034545 | 11 | 171 | 3.2 | 9.7 | 0.00 | 0.00 | 0.00 | 52 | 1012.1 |
| 20260504033107 | 11 | 166 | 1.6 | 8.0 | 0.00 | 0.00 | 0.00 | 52 | 1012.1 |
| 20260504031536 | 11 | 196 | 3.2 | 11.3 | 0.00 | 0.00 | 0.00 | 51 | 1012.0 |
| 20260504031532 | 11 | 165 | 4.8 | 11.3 | 0.00 | 0.00 | 0.00 | 51 | 1012.6 |
| 20260504030114 | 11 | 161 | 4.8 | 8.0 | 0.00 | 0.00 | 0.00 | 51 | 1011.9 |
| 20260504025024 | 11 | 183 | 3.2 | 9.7 | 0.00 | 0.00 | 0.00 | 50 | 1012.5 |
| 20260504024649 | 11 | 144 | 3.2 | 9.7 | 0.00 | 0.00 | 0.00 | 50 | 1011.9 |
| 20260504023100 | 11 | 217 | 4.8 | 11.3 | 0.00 | 0.00 | 0.00 | 49 | 1011.9 |
| 20260504021537 | 11 | 199 | 3.2 | 8.0 | 0.00 | 0.00 | 0.00 | 48 | 1011.9 |
| 20260504021506 | 11 | 189 | 4.8 | 4.8 | 0.00 | 0.00 | 0.00 | 49 | 1012.5 |
| 20260504020041 | 11 | 174 | 3.2 | 8.0 | 0.00 | 0.00 | 0.00 | 48 | 1011.9 |
| 20260504014541 | 12 | 175 | 4.8 | 8.0 | 0.00 | 0.00 | 0.00 | 47 | 1012.4 |
| 20260504014004 | 12 | 181 | 4.8 | 11.3 | 0.00 | 0.00 | 0.00 | 47 | 1012.4 |
| 20260504013116 | 12 | 180 | 3.2 | 8.0 | 0.00 | 0.00 | 0.00 | 47 | 1011.7 |
| 20260504012504 | 12 | 170 | 4.8 | 9.7 | 0.00 | 0.00 | 0.00 | 47 | 1012.3 |
| 20260504011516 | 12 | 169 | 3.2 | 8.0 | 0.00 | 0.00 | 0.00 | 46 | 1011.6 |
| 20260504010012 | 12 | 186 | 1.6 | 8.0 | 0.00 | 0.00 | 0.00 | 45 | 1011.3 |
| 20260504005503 | 12 | 179 | 3.2 | 6.4 | 0.00 | 0.00 | 0.00 | 45 | 1011.8 |
| 20260504004540 | 12 | 157 | 3.2 | 9.7 | 0.00 | 0.00 | 0.00 | 44 | 1011.1 |
| 20260504004504 | 13 | 169 | 3.2 | 9.7 | 0.00 | 0.00 | 0.00 | 43 | 1011.7 |
| 20260504003512 | 13 | 196 | 3.2 | 8.0 | 0.00 | 0.00 | 0.00 | 42 | 1011.7 |
| 20260504001619 | 13 | 238 | 3.2 | 11.3 | 0.00 | 0.00 | 0.00 | 41 | 1010.9 |
| 20260504001503 | 13 | 195 | 3.2 | 11.3 | 0.00 | 0.00 | 0.00 | 41 | 1011.4 |
| 20260503235003 | 14 | 237 | 4.8 | 16.1 | 0.00 | 0.00 | 0.00 | 39 | 1011.3 |
| 20260503234609 | 14 | 285 | 3.2 | 16.1 | 0.00 | 0.00 | 0.00 | 39 | 1010.6 |
| 20260503233505 | 15 | 214 | 3.2 | 12.9 | 0.00 | 0.00 | 0.00 | 38 | 1011.1 |
| 20260503233004 | 15 | 235 | 1.6 | 12.9 | 0.00 | 0.00 | 0.00 | 38 | 1010.4 |
| 20260503230047 | 15 | 249 | 4.8 | 16.1 | 0.00 | 0.00 | 0.00 | 36 | 1010.3 |
| 20260503225503 | 15 | 257 | 8.0 | 24.1 | 0.00 | 0.00 | 0.00 | 35 | 1010.9 |
| 20260503224547 | 15 | 262 | 8.0 | 24.1 | 0.00 | 0.00 | 0.00 | 34 | 1010.2 |
| 20260503223123 | 16 | 275 | 3.2 | 17.7 | 0.00 | 0.00 | 0.00 | 35 | 1010.1 |
| 20260503221507 | 16 | 252 | 4.8 | 16.1 | 0.00 | 0.00 | 0.00 | 34 | 1010.1 |
| 20260503221004 | 16 | 320 | 6.4 | 17.7 | 0.00 | 0.00 | 0.00 | 34 | 1010.8 |
| 20260503220048 | 16 | 317 | 4.8 | 22.5 | 0.00 | 0.00 | 0.00 | 35 | 1010.2 |
| 20260503220004 | 16 | 304 | 6.4 | 22.5 | 0.00 | 0.00 | 0.00 | 33 | 1010.8 |
| 20260503214516 | 15 | 321 | 6.4 | 20.9 | 0.00 | 0.00 | 0.00 | 34 | 1010.1 |